TimeCST,TemperatureF,Dew PointF,Humidity,Sea Level PressureIn,VisibilityMPH,Wind Direction,Wind SpeedMPH,Gust SpeedMPH,PrecipitationIn,Events,Conditions,WindDirDegrees,DateUTC
12:53 AM,28.0,24.1,85,30.33,10.0,NE,9.2,-,N/A,,Overcast,50,2013-03-08 06:53:00
1:53 AM,28.0,23.0,81,30.33,10.0,ENE,8.1,-,N/A,,Overcast,60,2013-03-08 07:53:00
2:53 AM,28.0,23.0,81,30.33,10.0,ENE,5.8,-,N/A,,Overcast,70,2013-03-08 08:53:00
3:53 AM,27.0,23.0,85,30.34,10.0,ENE,6.9,-,N/A,,Overcast,70,2013-03-08 09:53:00
4:24 AM,26.6,23.0,86,30.30,10.0,ENE,8.1,-,N/A,,Scattered Clouds,60,2013-03-08 10:24:00
4:53 AM,27.0,23.0,85,30.36,10.0,ENE,6.9,-,N/A,,Partly Cloudy,60,2013-03-08 10:53:00
5:53 AM,26.1,23.0,88,30.38,9.0,ENE,5.8,-,N/A,,Clear,60,2013-03-08 11:53:00
6:53 AM,27.0,24.1,89,30.39,8.0,ENE,8.1,-,N/A,,Clear,60,2013-03-08 12:53:00
7:53 AM,30.0,24.1,79,30.40,10.0,ENE,10.4,-,N/A,,Clear,60,2013-03-08 13:53:00
8:53 AM,34.0,25.0,70,30.39,10.0,ENE,6.9,-,N/A,,Clear,60,2013-03-08 14:53:00
9:53 AM,37.9,24.1,57,30.38,10.0,Variable,5.8,-,N/A,,Clear,0,2013-03-08 15:53:00
10:53 AM,42.1,21.9,45,30.38,10.0,Calm,Calm,-,N/A,,Clear,0,2013-03-08 16:53:00
11:53 AM,46.0,21.0,37,30.39,10.0,Variable,4.6,-,N/A,,Clear,0,2013-03-08 17:53:00
12:53 PM,50.0,21.9,33,30.35,10.0,North,8.1,-,N/A,,Clear,360,2013-03-08 18:53:00
1:53 PM,50.0,19.0,29,30.30,10.0,ENE,6.9,-,N/A,,Clear,70,2013-03-08 19:53:00
2:53 PM,52.0,21.9,31,30.30,10.0,North,11.5,-,N/A,,Clear,10,2013-03-08 20:53:00
3:53 PM,52.0,18.0,26,30.29,10.0,NE,6.9,-,N/A,,Clear,40,2013-03-08 21:53:00
4:53 PM,51.1,19.0,28,30.30,10.0,NNE,3.5,-,N/A,,Clear,30,2013-03-08 22:53:00
5:53 PM,46.9,21.0,36,30.31,10.0,North,4.6,-,N/A,,Clear,10,2013-03-08 23:53:00
6:53 PM,45.0,21.9,40,30.32,10.0,Calm,Calm,-,N/A,,Clear,0,2013-03-09 00:53:00
7:53 PM,41.0,24.1,51,30.33,10.0,Calm,Calm,-,N/A,,Clear,0,2013-03-09 01:53:00
8:53 PM,39.0,23.0,53,30.32,10.0,NE,4.6,-,N/A,,Clear,50,2013-03-09 02:53:00
9:53 PM,37.9,24.1,57,30.31,10.0,NE,3.5,-,N/A,,Clear,50,2013-03-09 03:53:00
10:53 PM,35.1,25.0,67,30.30,10.0,NE,4.6,-,N/A,,Clear,50,2013-03-09 04:53:00
11:53 PM,33.1,24.1,70,30.29,10.0,Calm,Calm,-,N/A,,Clear,0,2013-03-09 05:53:00